Tracking 35055 objects as of 19-Aug-2026
HD Live streaming from Space Station
objects crossing your sky now

OBJECT B

Track OBJECT B now!
10-day predictions


NORAD ID: 51947
Int'l Code: 2022-023B
Launch date: March 5, 2022
Source: People's Republic of China (PRC)
Launch site: Xichang Space Center, China (XSC)
Your satellite tracking list
Your tracking list is empty




NASA's NSSDC Master Catalog

Two Line Element Set (TLE):
1 51947U 22023B   26230.15562756  .00006050  00000-0  26484-3 0  9993
2 51947  63.4809  59.4420 0108240 350.4740   9.4318 15.17933120247123
Source of the keplerian elements: AFSPC